Location: Nandig?ma
(16.7717°N, 80.2860°E)
Time: 10:31:58
(UTC+00:00)

Cosmos 1420 Rocket - Pass Details

Date: 03 August 2024
Orbit: 753 x 777 km, 74.0° (Epoch: 14 September)

Event Time Altitude Azimuth Distance (km) Brightness Sun altitude
Rises 14:18:34 0° 180° (S) 3,244 7.0 -16.1°
Reaches altitude 10° 14:21:01 10° 175° (S) 2,317 6.2 -16.6°
Maximum altitude 14:26:04 48° 101° (ESE) 1,005 4.2 -17.7°
Drops below altitude 10° 14:31:06 10° 28° (NNE) 2,310 6.5 -18.8°
Sets 14:33:32 0° 23° (NNE) 3,234 7.3 -19.3°
